Location: Aufkirchen
(47.9603°N, 11.3653°E)
Time: 10:32:32
(UTC+01:00)

deb Explorer IX - Pass Details

Date: 03 December 2020
Orbit: 536 x 1104 km, 38.8° (Epoch: 19 January)

Event Time Altitude Azimuth Distance (km) Brightness Sun altitude
Rises 17:41:39 0° 258° (WSW) 3,634 ? -12.6°
Reaches altitude 10° 17:44:42 10° 249° (WSW) 2,593 ? -13.1°
Maximum altitude 17:50:03 32° 189° (S) 1,379 ? -14.0°
Drops below altitude 10° 17:54:42 10° 128° (SE) 2,236 ? -14.7°
Enters shadow 17:55:12 - 125° (SE) 2,400 ? -14.8°
